Guthrie, OK

7:38 AM CST on November 23, 2017 (GMT -0600)
Guthrie Municipal

Weather History for KGOK - December, 2012

Change the Weather History Date:

Friday, December 21, 2012

  Actual Average Record
Temperature  
Mean Temperature 42 °F -  
Max Temperature 64 °F 48 °F 70 °F (1957)
Min Temperature 21 °F 26 °F 2 °F (1983)
Degree Days  
Heating Degree Days 22    
Moisture  
Dew Point 8 °F    
Average Humidity 29    
Maximum Humidity 63    
Minimum Humidity 6    
Precipitation  
Precipitation 0.00 in - - ()
Sea Level Pressure  
Sea Level Pressure 30.30 in    
Wind  
Wind Speed 6 mph (South)    
Max Wind Speed 14 mph    
Max Gust Speed 20 mph    
Visibility 10 miles    
Events      
Averages and records for this station are not official NWS values.
T = Trace of Precipitation, MM = Missing Value Source: NWS Daily Summary

Daily Weather History Graph

Daily Weather History Graph

Search for Another Location

Airport or City:

Trip Planner

Search our weather history database for the weather conditions in past years. The results will help you decide how hot, cold, wet, or windy it might be!

Date:

Astronomy

Dec. 21, 2012 Rise Set
Actual Time 7:36 AM CST 5:19 PM CST
Civil Twilight 7:07 AM CST 5:48 PM CST
Nautical Twilight 6:35 AM CST 6:20 PM CST
Astronomical Twilight 6:04 AM CST 6:51 PM CST
Moon 1:00 PM CST (12/21) 1:32 AM CST (12/21)
Length of Visible Light 10h 40m
Length of Day
9h 43m
Waxing Gibbous, 65% of the Moon is Illuminated
Dec 21
Waxing Gibbous
Dec 28
Full
Jan 4
Last Quarter
Jan 11
New
Jan 18
First Quarter

Hourly Weather History & Observations

Time (CST) Temp. Windchill Dew Point Humidity Pressure Visibility Wind Dir Wind Speed Gust Speed Precip Events Conditions
12:53 AM 27.0 °F 21.6 °F 7.0 °F 43% 30.37 in 10.0 mi South 4.6 mph - N/A   Clear
1:53 AM 26.1 °F 20.5 °F 8.1 °F 47% 30.36 in 10.0 mi South 4.6 mph - N/A   Clear
2:53 AM 26.1 °F 21.9 °F 9.0 °F 49% 30.37 in 10.0 mi South 3.5 mph - N/A   Clear
3:53 AM 28.0 °F - 9.0 °F 45% 30.36 in 10.0 mi Calm Calm - N/A   Clear
4:53 AM 28.0 °F - 9.0 °F 45% 30.35 in 10.0 mi Calm Calm - N/A   Clear
5:53 AM 21.9 °F 14.5 °F 10.9 °F 63% 30.36 in 10.0 mi South 5.8 mph - N/A   Clear
6:53 AM 24.1 °F 16.0 °F 10.0 °F 55% 30.35 in 10.0 mi South 6.9 mph - N/A   Clear
7:53 AM 27.0 °F 19.5 °F 10.0 °F 49% 30.38 in 10.0 mi South 6.9 mph - N/A   Clear
8:53 AM 37.0 °F 31.6 °F 14.0 °F 39% 30.38 in 10.0 mi South 6.9 mph - N/A   Clear
9:53 AM 45.0 °F 41.2 °F 14.0 °F 29% 30.38 in 10.0 mi SSW 6.9 mph - N/A   Clear
10:53 AM 52.0 °F - 10.0 °F 19% 30.36 in 10.0 mi SW 9.2 mph - N/A   Clear
11:53 AM 57.0 °F - 8.1 °F 14% 30.31 in 10.0 mi SW 11.5 mph - N/A   Clear
12:53 PM 59.0 °F - 7.0 °F 13% 30.27 in 10.0 mi SW 11.5 mph - N/A   Clear
1:53 PM 63.0 °F - 9.0 °F 12% 30.24 in 10.0 mi SW 12.7 mph 19.6 mph N/A   Clear
2:53 PM 64.0 °F - 7.0 °F 11% 30.22 in 10.0 mi SSW 13.8 mph 19.6 mph N/A   Clear
3:53 PM 64.0 °F - -4.0 °F 6% 30.21 in 10.0 mi SW 12.7 mph - N/A   Clear
4:53 PM 57.0 °F - 3.0 °F 11% 30.22 in 10.0 mi South 6.9 mph - N/A   Clear
5:53 PM 53.1 °F - 5.0 °F 14% 30.24 in 10.0 mi SSW 4.6 mph - N/A   Clear
6:53 PM 48.0 °F - 7.0 °F 19% 30.25 in 10.0 mi SSE 4.6 mph - N/A   Clear
7:53 PM 46.9 °F - 8.1 °F 21% 30.24 in 10.0 mi South 5.8 mph - N/A   Clear
8:53 PM 46.0 °F 42.5 °F 10.0 °F 23% 30.23 in 10.0 mi SSE 6.9 mph - N/A   Clear
9:53 PM 45.0 °F 41.2 °F 9.0 °F 23% 30.23 in 10.0 mi SSE 6.9 mph - N/A   Clear
10:53 PM 41.0 °F 36.4 °F 9.0 °F 27% 30.22 in 10.0 mi South 6.9 mph - N/A   Clear
11:53 PM 37.9 °F 32.1 °F 9.0 °F 30% 30.21 in 10.0 mi South 8.1 mph - N/A   Clear